TimeCDT,TemperatureF,Dew PointF,Humidity,Sea Level PressureIn,VisibilityMPH,Wind Direction,Wind SpeedMPH,Gust SpeedMPH,PrecipitationIn,Events,Conditions,WindDirDegrees,DateUTC
12:53 AM,79.0,66.0,64,29.84,10.0,SSE,10.4,-,N/A,,Clear,160,2013-07-23 05:53:00
1:53 AM,78.1,68.0,71,29.83,10.0,SSE,10.4,-,N/A,,Clear,150,2013-07-23 06:53:00
2:53 AM,77.0,66.9,71,29.81,10.0,ESE,6.9,-,N/A,,Clear,110,2013-07-23 07:53:00
3:53 AM,75.9,66.9,74,29.82,10.0,SE,4.6,-,N/A,,Clear,140,2013-07-23 08:53:00
4:53 AM,73.9,66.0,76,29.82,10.0,ESE,5.8,-,N/A,,Clear,120,2013-07-23 09:53:00
5:53 AM,73.0,66.0,79,29.83,10.0,ESE,8.1,-,N/A,,Clear,120,2013-07-23 10:53:00
6:53 AM,73.0,66.0,79,29.83,10.0,SE,5.8,-,N/A,,Clear,140,2013-07-23 11:53:00
7:53 AM,73.9,66.0,76,29.83,10.0,SE,8.1,-,N/A,,Clear,130,2013-07-23 12:53:00
8:53 AM,79.0,66.0,64,29.84,10.0,SE,10.4,-,N/A,,Clear,140,2013-07-23 13:53:00
9:53 AM,82.0,66.0,58,29.84,10.0,South,9.2,-,N/A,,Clear,170,2013-07-23 14:53:00
10:53 AM,87.1,64.0,46,29.83,10.0,South,9.2,-,N/A,,Clear,170,2013-07-23 15:53:00
11:53 AM,88.0,63.0,43,29.83,10.0,SSE,10.4,-,N/A,,Clear,150,2013-07-23 16:53:00
12:53 PM,90.0,62.1,39,29.83,10.0,SSW,5.8,17.3,N/A,,Clear,210,2013-07-23 17:53:00
1:53 PM,93.9,61.0,33,29.81,10.0,SSE,10.4,18.4,N/A,,Partly Cloudy,150,2013-07-23 18:53:00
2:53 PM,96.1,60.1,30,29.78,10.0,South,12.7,20.7,N/A,,Partly Cloudy,190,2013-07-23 19:53:00
3:53 PM,97.0,57.0,26,29.76,10.0,South,11.5,17.3,N/A,,Clear,190,2013-07-23 20:53:00
4:53 PM,98.1,59.0,27,29.75,10.0,Variable,6.9,20.7,N/A,,Scattered Clouds,0,2013-07-23 21:53:00
5:53 PM,99.0,57.0,25,29.73,10.0,South,12.7,21.9,N/A,,Scattered Clouds,190,2013-07-23 22:53:00
6:53 PM,98.1,57.9,26,29.72,10.0,South,13.8,20.7,N/A,,Partly Cloudy,190,2013-07-23 23:53:00
7:53 PM,96.1,55.9,26,29.72,10.0,South,11.5,-,N/A,,Clear,190,2013-07-24 00:53:00
8:53 PM,91.9,63.0,38,29.73,10.0,SE,17.3,29.9,N/A,,Scattered Clouds,140,2013-07-24 01:53:00
9:53 PM,89.1,64.9,45,29.75,10.0,SE,16.1,26.5,N/A,,Clear,140,2013-07-24 02:53:00
10:53 PM,87.1,64.9,48,29.78,10.0,SSE,15.0,20.7,N/A,,Clear,150,2013-07-24 03:53:00
11:53 PM,84.9,64.9,51,29.80,10.0,SSE,13.8,19.6,N/A,,Clear,160,2013-07-24 04:53:00